When you browse on this site, cookies collect data to enhance your experience and personalize the content and advertising you see.
Visit our Privacy Policy to learn more. By continuing to use the site, you agree to this use of cookies and data.
  • In France
  • List of Countries
  • For 7 days
  • Water Temperature
  • Satellite Maps
  • Weather Map
  • Weather Widgets
  • user-avatar
    Login

    Hourly Weather Igls

    Today, 26 April, Friday

    Time Temperature Precipitation Wind Pressure Humidity
    00:00 +10°C° 0 mm 3 mps 681 mmHg 87%
    01:00 +10°C° 0 mm 3 mps 681 mmHg 88%
    02:00 +10°C° 0 mm 3 mps 681 mmHg 88%
    03:00 +9°C° 0 mm 3 mps 681 mmHg 88%
    04:00 +9°C° 0 mm 3 mps 681 mmHg 88%
    05:00 +10°C° 0 mm 3 mps 681 mmHg 85%
    06:00 +11°C° 0 mm 3 mps 680 mmHg 81%
    07:00 +12°C° 0 mm 4 mps 680 mmHg 77%
    08:00 +13°C° 0 mm 3 mps 681 mmHg 69%
    09:00 +16°C° 0 mm 3 mps 681 mmHg 62%
    10:00 +18°C° 0 mm 3 mps 682 mmHg 55%
    11:00 +17°C° 0.5 mm 3 mps 682 mmHg 59%
    12:00 +17°C° 0.5 mm 3 mps 682 mmHg 63%
    13:00 +16°C° 0.5 mm 2 mps 682 mmHg 67%
    14:00 +14°C° 1.7 mm 2 mps 682 mmHg 75%
    15:00 +10°C° 1.7 mm 2 mps 682 mmHg 83%
    16:00 +7°C° 1.7 mm 2 mps 682 mmHg 91%
    17:00 +7°C° 0.5 mm 2 mps 682 mmHg 92%
    18:00 +6°C° 0.5 mm 2 mps 682 mmHg 92%
    19:00 +5°C° 0.5 mm 2 mps 683 mmHg 93%
    20:00 +5°C° 0.1 mm 2 mps 683 mmHg 93%
    21:00 +5°C° 0.1 mm 1 mps 683 mmHg 93%
    22:00 +5°C° 0.1 mm 1 mps 684 mmHg 94%
    23:00 +4°C° 0 mm 1 mps 684 mmHg 94%

    Tomorrow, 27 April, Saturday

    Time Temperature Precipitation Wind Pressure Humidity
    00:00 +4°C° 0 mm 1 mps 684 mmHg 93%
    01:00 +4°C° 0 mm 1 mps 684 mmHg 93%
    02:00 +4°C° 0.2 mm 1 mps 684 mmHg 93%
    03:00 +4°C° 0.2 mm 1 mps 684 mmHg 93%
    04:00 +4°C° 0.2 mm 2 mps 684 mmHg 93%
    05:00 +4°C° 0.2 mm 2 mps 684 mmHg 91%
    06:00 +5°C° 0.2 mm 1 mps 685 mmHg 89%
    07:00 +5°C° 0.2 mm 1 mps 685 mmHg 87%
    08:00 +7°C° 0.1 mm 1 mps 685 mmHg 80%
    09:00 +9°C° 0.1 mm 1 mps 685 mmHg 73%
    10:00 +10°C° 0.1 mm 1 mps 685 mmHg 66%
    11:00 +11°C° 0 mm 1 mps 685 mmHg 62%
    12:00 +12°C° 0 mm 1 mps 685 mmHg 58%
    13:00 +13°C° 0 mm 1 mps 685 mmHg 54%
    14:00 +13°C° 0.1 mm 2 mps 685 mmHg 56%
    15:00 +13°C° 0.1 mm 2 mps 685 mmHg 58%
    16:00 +13°C° 0.1 mm 2 mps 684 mmHg 60%
    17:00 +10°C° 0.2 mm 2 mps 684 mmHg 69%
    18:00 +10°C° 0.2 mm 1 mps 684 mmHg 78%
    19:00 +8°C° 0.2 mm 1 mps 684 mmHg 88%
    20:00 +8°C° 0.3 mm 1 mps 685 mmHg 90%
    21:00 +7°C° 0.3 mm 1 mps 685 mmHg 92%
    22:00 +7°C° 0.3 mm 1 mps 686 mmHg 94%
    23:00 +7°C° 0.5 mm 1 mps 686 mmHg 95%

    Day after tomorrow, 28 April, Sunday

    Time Temperature Precipitation Wind Pressure Humidity
    00:00 +6°C° 0.5 mm 1 mps 686 mmHg 95%
    01:00 +6°C° 0.5 mm 1 mps 686 mmHg 96%
    02:00 +5°C° 0.9 mm 2 mps 685 mmHg 96%
    03:00 +4°C° 0.9 mm 2 mps 685 mmHg 95%
    04:00 +4°C° 0.9 mm 2 mps 685 mmHg 95%
    05:00 +4°C° 1.2 mm 2 mps 685 mmHg 94%
    06:00 +4°C° 1.2 mm 2 mps 684 mmHg 94%
    07:00 +3°C° 1.2 mm 2 mps 684 mmHg 93%
    08:00 +4°C° 0.9 mm 2 mps 684 mmHg 92%
    09:00 +4°C° 0.9 mm 2 mps 684 mmHg 91%
    10:00 +4°C° 0.9 mm 2 mps 685 mmHg 90%
    11:00 +5°C° 0.4 mm 2 mps 684 mmHg 89%
    12:00 +5°C° 0.4 mm 2 mps 684 mmHg 89%
    13:00 +6°C° 0.4 mm 2 mps 684 mmHg 89%
    14:00 +5°C° 0.5 mm 2 mps 684 mmHg 89%
    15:00 +5°C° 0.5 mm 2 mps 684 mmHg 88%
    16:00 +5°C° 0.5 mm 2 mps 684 mmHg 88%
    17:00 +5°C° 0.2 mm 2 mps 684 mmHg 89%
    18:00 +5°C° 0.2 mm 1 mps 684 mmHg 91%
    19:00 +4°C° 0.2 mm 1 mps 684 mmHg 93%
    20:00 +3°C° 0 mm 1 mps 684 mmHg 94%
    21:00 +2°C° 0 mm 1 mps 684 mmHg 94%
    22:00 +2°C° 0 mm 1 mps 685 mmHg 94%
    23:00 +1°C° 0 mm 1 mps 684 mmHg 93%

    29 April, Monday

    Time Temperature Precipitation Wind Pressure Humidity
    00:00 +1°C° 0 mm 1 mps 684 mmHg 91%
    01:00 +1°C° 0 mm 1 mps 684 mmHg 90%
    02:00 +1°C° 0 mm 1 mps 684 mmHg 89%
    03:00 +1°C° 0 mm 1 mps 684 mmHg 89%
    04:00 0°C° 0 mm 1 mps 684 mmHg 88%
    05:00 +1°C° 0 mm 1 mps 684 mmHg 87%
    06:00 +2°C° 0 mm 1 mps 684 mmHg 85%
    07:00 +3°C° 0 mm 1 mps 684 mmHg 84%
    08:00 +5°C° 0 mm 1 mps 684 mmHg 81%
    09:00 +6°C° 0 mm 1 mps 684 mmHg 79%
    10:00 +6°C° 0 mm 2 mps 684 mmHg 77%
    11:00 +7°C° 0.1 mm 2 mps 684 mmHg 76%
    12:00 +8°C° 0.1 mm 2 mps 684 mmHg 76%
    13:00 +9°C° 0.1 mm 2 mps 684 mmHg 75%
    14:00 +8°C° 0.1 mm 2 mps 684 mmHg 76%
    15:00 +8°C° 0.1 mm 2 mps 684 mmHg 76%
    16:00 +8°C° 0.1 mm 2 mps 683 mmHg 77%
    17:00 +7°C° 0.1 mm 2 mps 683 mmHg 82%
    18:00 +6°C° 0.1 mm 1 mps 683 mmHg 88%
    19:00 +5°C° 0.1 mm 1 mps 683 mmHg 93%
    20:00 +4°C° 0 mm 1 mps 684 mmHg 93%
    21:00 +3°C° 0 mm 1 mps 684 mmHg 93%
    22:00 +2°C° 0 mm 1 mps 684 mmHg 93%
    23:00 +2°C° 0 mm 1 mps 684 mmHg 91%

    30 April, Tuesday

    Time Temperature Precipitation Wind Pressure Humidity
    00:00 +2°C° 0 mm 1 mps 684 mmHg 88%
    01:00 +1°C° 0 mm 1 mps 684 mmHg 86%
    02:00 +1°C° 0 mm 1 mps 684 mmHg 84%
    03:00 +1°C° 0 mm 1 mps 684 mmHg 82%
    04:00 +1°C° 0 mm 1 mps 684 mmHg 80%
    05:00 +2°C° 0 mm 1 mps 684 mmHg 77%
    06:00 +4°C° 0 mm 1 mps 684 mmHg 75%
    07:00 +5°C° 0 mm 1 mps 684 mmHg 73%
    08:00 +7°C° 0 mm 1 mps 684 mmHg 69%
    09:00 +9°C° 0 mm 1 mps 684 mmHg 66%
    10:00 +10°C° 0 mm 1 mps 684 mmHg 63%
    11:00 +11°C° 0 mm 1 mps 684 mmHg 62%
    12:00 +12°C° 0 mm 2 mps 683 mmHg 61%
    13:00 +12°C° 0 mm 2 mps 683 mmHg 60%
    14:00 +12°C° 0.1 mm 2 mps 683 mmHg 60%
    15:00 +12°C° 0.1 mm 2 mps 683 mmHg 61%
    16:00 +12°C° 0.1 mm 2 mps 682 mmHg 61%
    17:00 +9°C° 0.1 mm 2 mps 682 mmHg 69%
    18:00 +9°C° 0.1 mm 1 mps 682 mmHg 77%
    19:00 +7°C° 0.1 mm 1 mps 682 mmHg 85%
    20:00 +6°C° 0 mm 1 mps 682 mmHg 88%
    21:00 +5°C° 0 mm 1 mps 683 mmHg 90%
    22:00 +4°C° 0 mm 1 mps 683 mmHg 93%
    23:00 +4°C° 0 mm 1 mps 683 mmHg 92%

    1 May, Wednesday

    Time Temperature Precipitation Wind Pressure Humidity
    00:00 +3°C° 0 mm 1 mps 683 mmHg 91%
    01:00 +3°C° 0 mm 1 mps 683 mmHg 90%
    02:00 +3°C° 0 mm 1 mps 683 mmHg 88%
    03:00 +3°C° 0 mm 1 mps 682 mmHg 86%
    04:00 +3°C° 0 mm 1 mps 682 mmHg 84%
    05:00 +5°C° 0 mm 1 mps 682 mmHg 78%
    06:00 +6°C° 0 mm 1 mps 683 mmHg 73%
    07:00 +8°C° 0 mm 1 mps 683 mmHg 68%
    08:00 +11°C° 0 mm 1 mps 683 mmHg 62%
    09:00 +13°C° 0 mm 1 mps 683 mmHg 56%
    10:00 +15°C° 0 mm 0 mps 683 mmHg 49%
    11:00 +15°C° 0 mm 0 mps 683 mmHg 47%
    12:00 +18°C° 0 mm 1 mps 683 mmHg 46%
    13:00 +19°C° 0 mm 1 mps 682 mmHg 44%
    14:00 +18°C° 0 mm 1 mps 682 mmHg 45%
    15:00 +18°C° 0 mm 1 mps 682 mmHg 47%
    16:00 +18°C° 0 mm 1 mps 681 mmHg 48%
    17:00 +15°C° 0 mm 1 mps 681 mmHg 56%
    18:00 +12°C° 0 mm 0 mps 681 mmHg 63%
    19:00 +10°C° 0 mm 0 mps 680 mmHg 71%
    20:00 +10°C° 0 mm 1 mps 680 mmHg 72%
    21:00 +9°C° 0 mm 1 mps 681 mmHg 74%
    22:00 +7°C° 0 mm 2 mps 681 mmHg 76%
    23:00 +6°C° 0 mm 2 mps 681 mmHg 78%
    Show more